Location: *
(53.9002°N, 27.5624°E)
Time: 16:57:43
(UTC+00:00)

Cosmos 1869 - Pass Details

Date: 12 November 2019
Orbit: 529 x 554 km, 82.5° (Epoch: 11 December)

Event Time Altitude Azimuth Distance (km) Brightness Sun altitude
Rises 15:31:24 0° 158° (SSE) 2,694 6.8 -11.0°
Reaches altitude 10° 15:33:48 10° 146° (SE) 1,802 5.8 -11.4°
Maximum altitude 15:37:06 26° 89° (E) 1,091 4.3 -11.8°
Enters shadow 15:40:13 11° 34° (NE) 1,742 5.4 -12.3°
